Location: Auckland
(36.8670°S, 174.7670°E)
Time: 11:22:33
(UTC+12:00)

Courier 1B Rocket - Pass Details

Date: 24 July 2019
Orbit: 920 x 1202 km, 28.3° (Epoch: 24 August)

Event Time Altitude Azimuth Distance (km) Brightness Sun altitude
Rises 01:06:27 0° 342° (NNW) 4,060 - -71.2°
Reaches altitude 10° 01:11:43 10° 12° (NNE) 3,127 - -70.6°
Maximum altitude 01:14:13 12° 31° (NNE) 3,000 - -70.3°
Drops below altitude 10° 01:16:43 10° 50° (NE) 3,133 - -70.0°
Sets 01:21:59 0° 79° (ENE) 4,081 - -69.4°
